Weather History for KPLN - November, 2012

Change the Weather History Date:

Thursday, November 22, 2012

  Actual Average Record
Temperature  
Mean Temperature 59 °F -  
Max Temperature 68 °F 39 °F 68 °F (2012)
Min Temperature 50 °F 26 °F 2 °F (1971)
Degree Days  
Heating Degree Days 6    
Growing Degree Days 9 (Base 50)    
Moisture  
Dew Point 38 °F    
Average Humidity 48    
Maximum Humidity 65    
Minimum Humidity 28    
Precipitation  
Precipitation 0.00 in - - ()
Sea Level Pressure  
Sea Level Pressure 29.78 in    
Wind  
Wind Speed 11 mph (SSW)    
Max Wind Speed 20 mph    
Max Gust Speed 33 mph    
Visibility 10 miles    
Events      
Averages and records for this station are not official NWS values.
T = Trace of Precipitation, MM = Missing Value Source: NWS Daily Summary

Daily Weather History Graph

Daily Weather History Graph

Search for Another Location

Airport or City:

Trip Planner

Search our weather history database for the weather conditions in past years. The results will help you decide how hot, cold, wet, or windy it might be!

Date:

Astronomy

Nov. 22, 2012 Rise Set
Actual Time 7:48 AM EST 5:02 PM EST
Civil Twilight 7:15 AM EST 5:34 PM EST
Nautical Twilight 6:39 AM EST 6:11 PM EST
Astronomical Twilight 6:03 AM EST 6:46 PM EST
Moon 2:00 PM EST (11/22) 1:52 AM EST (11/22)
Length of Visible Light 10h 19m
Length of Day
9h 13m
Waxing Gibbous, 71% of the Moon is Illuminated
Nov 22
Waxing Gibbous
Nov 28
Full
Dec 6
Last Quarter
Dec 13
New
Dec 20
First Quarter

Hourly Weather History & Observations

Time (EST) Temp. Dew Point Humidity Pressure Visibility Wind Dir Wind Speed Gust Speed Precip Events Conditions
12:54 AM 50.0 °F 37.0 °F 61% 29.97 in 10.0 mi SSW 4.6 mph - N/A   Clear
1:54 AM 50.0 °F 37.9 °F 63% 29.96 in 10.0 mi SW 12.7 mph 20.7 mph N/A   Clear
2:54 AM 51.1 °F 39.0 °F 63% 29.96 in 9.0 mi SW 8.1 mph 17.3 mph N/A   Clear
3:54 AM 52.0 °F 39.0 °F 61% 29.94 in 10.0 mi SSW 6.9 mph - N/A   Clear
4:54 AM 52.0 °F 39.0 °F 61% 29.93 in 10.0 mi SSW 9.2 mph 18.4 mph N/A   Clear
5:54 AM 52.0 °F 37.9 °F 59% 29.91 in 10.0 mi SSW 10.4 mph 18.4 mph N/A   Clear
6:54 AM 53.1 °F 37.0 °F 55% 29.89 in 10.0 mi SSW 11.5 mph 18.4 mph N/A   Clear
7:54 AM 54.0 °F 36.0 °F 51% 29.87 in 10.0 mi SSW 9.2 mph 19.6 mph N/A   Clear
8:54 AM 55.0 °F 34.0 °F 45% 29.86 in 10.0 mi SSW 10.4 mph 18.4 mph N/A   Clear
9:54 AM 59.0 °F 34.0 °F 39% 29.84 in 10.0 mi SSW 15.0 mph 21.9 mph N/A   Clear
10:54 AM 63.0 °F 33.1 °F 33% 29.82 in 10.0 mi SSW 19.6 mph 31.1 mph N/A   Clear
11:54 AM 66.0 °F 33.1 °F 29% 29.79 in 10.0 mi SSW 19.6 mph 28.8 mph N/A   Clear
12:54 PM 66.9 °F 33.1 °F 28% 29.76 in 10.0 mi SSW 19.6 mph 33.4 mph N/A   Clear
1:54 PM 68.0 °F 34.0 °F 28% 29.71 in 10.0 mi SSW 17.3 mph 33.4 mph N/A   Clear
3:54 PM 66.0 °F 35.1 °F 32% 29.68 in 10.0 mi SSW 9.2 mph - N/A   Clear
4:54 PM 64.0 °F 36.0 °F 35% 29.67 in 10.0 mi South 16.1 mph 28.8 mph N/A   Clear
5:54 PM 61.0 °F 37.0 °F 41% 29.68 in 10.0 mi SSW 8.1 mph - N/A   Partly Cloudy
6:54 PM 61.0 °F 37.9 °F 42% 29.66 in 10.0 mi SSW 9.2 mph - 0.00 in   Scattered Clouds
7:54 PM 61.0 °F 39.0 °F 44% 29.65 in 10.0 mi SW 19.6 mph 26.5 mph N/A   Overcast
8:54 PM 60.1 °F 42.1 °F 51% 29.63 in 10.0 mi SW 19.6 mph 28.8 mph N/A   Overcast
9:54 PM 59.0 °F 43.0 °F 55% 29.60 in 10.0 mi SW 18.4 mph 28.8 mph N/A   Overcast
10:54 PM 59.0 °F 45.0 °F 60% 29.58 in 10.0 mi SSW 16.1 mph 27.6 mph N/A   Overcast
11:54 PM 57.9 °F 46.0 °F 65% 29.55 in 10.0 mi SW 12.7 mph 19.6 mph N/A   Overcast